TimeCST,TemperatureF,Dew PointF,Humidity,Sea Level PressureIn,VisibilityMPH,Wind Direction,Wind SpeedMPH,Gust SpeedMPH,PrecipitationIn,Events,Conditions,WindDirDegrees,DateUTC
12:53 AM,44.1,35.1,71,30.19,10.0,South,9.2,-,N/A,,Clear,170,2012-11-17 06:53:00
1:53 AM,44.1,35.1,71,30.17,10.0,South,10.4,16.1,N/A,,Clear,170,2012-11-17 07:53:00
2:53 AM,44.1,34.0,68,30.15,10.0,South,11.5,-,N/A,,Clear,180,2012-11-17 08:53:00
3:53 AM,43.0,33.1,68,30.12,10.0,South,17.3,23.0,N/A,,Clear,180,2012-11-17 09:53:00
4:53 AM,42.1,33.1,70,30.12,10.0,South,15.0,23.0,N/A,,Clear,180,2012-11-17 10:53:00
5:53 AM,41.0,32.0,70,30.12,10.0,South,15.0,-,N/A,,Clear,180,2012-11-17 11:53:00
6:53 AM,39.9,32.0,73,30.14,10.0,South,8.1,-,N/A,,Clear,170,2012-11-17 12:53:00
7:53 AM,39.0,30.9,73,30.15,10.0,SSE,8.1,-,N/A,,Clear,160,2012-11-17 13:53:00
8:53 AM,45.0,33.1,63,30.15,10.0,SSW,11.5,-,N/A,,Clear,200,2012-11-17 14:53:00
9:53 AM,48.9,35.1,59,30.14,10.0,SSW,16.1,23.0,N/A,,Clear,200,2012-11-17 15:53:00
10:53 AM,53.1,37.0,55,30.14,10.0,SSW,16.1,24.2,N/A,,Clear,210,2012-11-17 16:53:00
11:53 AM,57.9,37.0,46,30.11,10.0,SSW,12.7,19.6,N/A,,Clear,200,2012-11-17 17:53:00
1:53 PM,63.0,35.1,35,30.05,10.0,SSW,10.4,-,N/A,,Clear,200,2012-11-17 19:53:00
2:53 PM,64.0,34.0,33,30.04,10.0,SSW,8.1,-,N/A,,Clear,210,2012-11-17 20:53:00
3:53 PM,64.9,34.0,32,30.05,10.0,SSW,10.4,-,N/A,,Clear,210,2012-11-17 21:53:00
4:53 PM,63.0,33.1,33,30.05,10.0,SW,5.8,-,N/A,,Clear,230,2012-11-17 22:53:00
5:53 PM,48.9,30.9,50,30.09,10.0,WNW,4.6,-,N/A,,Clear,300,2012-11-17 23:53:00
6:53 PM,42.1,28.9,60,30.10,6.0,Calm,Calm,-,N/A,,Haze,0,2012-11-18 00:53:00
7:53 PM,39.9,28.9,65,30.11,10.0,Calm,Calm,-,N/A,,Clear,0,2012-11-18 01:53:00
8:53 PM,48.9,37.9,66,30.09,10.0,South,4.6,-,N/A,,Clear,180,2012-11-18 02:53:00
9:53 PM,48.9,39.0,69,30.09,10.0,SSW,6.9,-,N/A,,Clear,210,2012-11-18 03:53:00
10:53 PM,46.9,39.0,74,30.09,10.0,SSW,5.8,-,N/A,,Clear,210,2012-11-18 04:53:00
11:53 PM,45.0,37.9,76,30.07,10.0,South,5.8,-,N/A,,Clear,190,2012-11-18 05:53:00